Time,TemperatureF,DewpointF,PressureIn,WindDirection,WindDirectionDegrees,WindSpeedMPH,WindSpeedGustMPH,Humidity,HourlyPrecipIn,Conditions,Clouds,dailyrainin,SoftwareType,DateUTC
2018-02-24 00:06:00,39.4,38.6,30.08,North,-9999,-999.9,-999.0,97,-99.99,,,-99.99,open2300-1.11,2018-02-24 05:06:00,
2018-02-24 00:11:00,39.4,38.6,30.08,North,-9999,-999.9,-999.0,97,-99.99,,,-99.99,open2300-1.11,2018-02-24 05:11:00,
2018-02-24 00:17:00,39.4,38.6,30.08,North,-9999,-999.9,-999.0,97,-99.99,,,-99.99,open2300-1.11,2018-02-24 05:17:00,
2018-02-24 00:22:00,39.6,38.8,30.09,North,-9999,-999.9,-999.0,97,-99.99,,,-99.99,open2300-1.11,2018-02-24 05:22:00,
2018-02-24 00:27:00,39.6,38.8,30.09,North,-9999,-999.9,-999.0,97,-99.99,,,-99.99,open2300-1.11,2018-02-24 05:27:00,
2018-02-24 00:32:00,39.6,38.8,30.09,North,-9999,-999.9,-999.0,97,-99.99,,,-99.99,open2300-1.11,2018-02-24 05:32:00,
2018-02-24 00:38:00,39.6,38.8,30.09,North,-9999,-999.9,-999.0,97,-99.99,,,-99.99,open2300-1.11,2018-02-24 05:38:00,
2018-02-24 00:43:00,39.7,38.9,30.09,North,-9999,-999.9,-999.0,97,-99.99,,,-99.99,open2300-1.11,2018-02-24 05:43:00,
2018-02-24 00:48:00,39.7,38.9,30.09,North,-9999,-999.9,-999.0,97,-99.99,,,-99.99,open2300-1.11,2018-02-24 05:48:00,
2018-02-24 00:53:00,39.7,38.9,30.09,North,-9999,-999.9,-999.0,97,-99.99,,,-99.99,open2300-1.11,2018-02-24 05:53:00,
2018-02-24 00:59:00,39.9,39.1,30.09,North,-9999,-999.9,-999.0,97,-99.99,,,-99.99,open2300-1.11,2018-02-24 05:59:00,
2018-02-24 01:04:00,39.9,39.1,30.09,North,-9999,-999.9,-999.0,97,-99.99,,,-99.99,open2300-1.11,2018-02-24 06:04:00,
2018-02-24 01:09:00,39.9,39.1,30.08,North,-9999,-999.9,-999.0,97,-99.99,,,-99.99,open2300-1.11,2018-02-24 06:09:00,
2018-02-24 01:14:00,40.1,39.3,30.07,North,-9999,-999.9,-999.0,97,-99.99,,,-99.99,open2300-1.11,2018-02-24 06:14:00,
2018-02-24 01:19:00,40.3,39.5,30.08,North,-9999,-999.9,-999.0,97,-99.99,,,-99.99,open2300-1.11,2018-02-24 06:19:00,
2018-02-24 01:25:00,40.3,39.5,30.08,North,-9999,-999.9,-999.0,97,-99.99,,,-99.99,open2300-1.11,2018-02-24 06:25:00,
2018-02-24 01:30:00,40.3,39.5,30.07,North,-9999,-999.9,-999.0,97,-99.99,,,-99.99,open2300-1.11,2018-02-24 06:30:00,
2018-02-24 01:35:00,40.5,39.7,30.08,North,-9999,-999.9,-999.0,97,-99.99,,,-99.99,open2300-1.11,2018-02-24 06:35:00,
2018-02-24 01:40:00,40.6,39.8,30.08,North,-9999,-999.9,-999.0,97,-99.99,,,-99.99,open2300-1.11,2018-02-24 06:40:00,
2018-02-24 01:46:00,40.6,39.8,30.08,North,-9999,-999.9,-999.0,97,-99.99,,,-99.99,open2300-1.11,2018-02-24 06:46:00,
2018-02-24 01:51:00,40.8,40.0,30.08,North,-9999,-999.9,-999.0,97,-99.99,,,-99.99,open2300-1.11,2018-02-24 06:51:00,
2018-02-24 01:56:00,40.8,40.0,30.07,North,-9999,-999.9,-999.0,97,-99.99,,,-99.99,open2300-1.11,2018-02-24 06:56:00,
2018-02-24 02:01:00,40.8,40.0,30.07,North,-9999,-999.9,-999.0,97,-99.99,,,-99.99,open2300-1.11,2018-02-24 07:01:00,
2018-02-24 02:07:00,41.2,40.4,30.08,North,-9999,-999.9,-999.0,97,-99.99,,,-99.99,open2300-1.11,2018-02-24 07:07:00,
2018-02-24 02:12:00,41.2,40.4,30.08,North,-9999,-999.9,-999.0,97,-99.99,,,-99.99,open2300-1.11,2018-02-24 07:12:00,
2018-02-24 02:17:00,41.2,40.4,30.07,North,-9999,-999.9,-999.0,97,-99.99,,,-99.99,open2300-1.11,2018-02-24 07:17:00,
2018-02-24 02:22:00,41.2,40.4,30.07,North,-9999,-999.9,-999.0,97,-99.99,,,-99.99,open2300-1.11,2018-02-24 07:22:00,
2018-02-24 02:28:00,41.4,40.5,30.08,North,-9999,-999.9,-999.0,97,-99.99,,,-99.99,open2300-1.11,2018-02-24 07:28:00,
2018-02-24 02:33:00,41.4,40.5,30.08,North,-9999,-999.9,-999.0,97,-99.99,,,-99.99,open2300-1.11,2018-02-24 07:33:00,
2018-02-24 02:38:00,41.5,40.7,30.07,North,-9999,-999.9,-999.0,97,-99.99,,,-99.99,open2300-1.11,2018-02-24 07:38:00,
2018-02-24 02:43:00,41.5,40.7,30.07,North,-9999,-999.9,-999.0,97,-99.99,,,-99.99,open2300-1.11,2018-02-24 07:43:00,
2018-02-24 02:48:00,41.5,40.7,30.07,North,-9999,-999.9,-999.0,97,-99.99,,,-99.99,open2300-1.11,2018-02-24 07:48:00,
2018-02-24 02:54:00,41.7,40.9,30.07,North,-9999,-999.9,-999.0,97,-99.99,,,-99.99,open2300-1.11,2018-02-24 07:54:00,
2018-02-24 02:59:00,41.7,40.9,30.06,North,-9999,-999.9,-999.0,97,-99.99,,,-99.99,open2300-1.11,2018-02-24 07:59:00,
2018-02-24 03:04:00,41.7,40.9,30.06,North,-9999,-999.9,-999.0,97,-99.99,,,-99.99,open2300-1.11,2018-02-24 08:04:00,
2018-02-24 03:09:00,41.7,40.9,30.06,North,-9999,-999.9,-999.0,97,-99.99,,,-99.99,open2300-1.11,2018-02-24 08:09:00,
2018-02-24 03:15:00,41.7,40.9,30.06,North,-9999,-999.9,-999.0,97,-99.99,,,-99.99,open2300-1.11,2018-02-24 08:15:00,
2018-02-24 03:20:00,41.9,41.1,30.05,North,-9999,-999.9,-999.0,97,-99.99,,,-99.99,open2300-1.11,2018-02-24 08:20:00,
2018-02-24 03:26:00,41.7,40.9,30.05,North,-9999,-999.9,-999.0,97,-99.99,,,-99.99,open2300-1.11,2018-02-24 08:26:00,
2018-02-24 03:31:00,41.7,40.9,30.04,North,-9999,-999.9,-999.0,97,-99.99,,,-99.99,open2300-1.11,2018-02-24 08:31:00,
2018-02-24 03:36:00,41.7,40.9,30.04,North,-9999,-999.9,-999.0,97,-99.99,,,-99.99,open2300-1.11,2018-02-24 08:36:00,
2018-02-24 03:42:00,41.9,41.1,30.04,North,-9999,-999.9,-999.0,97,-99.99,,,-99.99,open2300-1.11,2018-02-24 08:42:00,